Total_Precipitation_Accumulation
1.90 2.08 2.07 2.08 2.17 2.23 2.08 1.85 1.76 1.75 1.81 1.88 2.07 2.14 2.11 2.15 2.23 2.27 2.26 2.55 2.66 2.64 2.61 2.62 2.61 2.73 2.75 2.69 2.78 2.93 3.18 3.25 2.89 2.37 2.25 2.20 2.17 2.06 2.05 1.92 1.79 1.69 1.49
1.76 1.95 2.02 2.03 2.09 2.12 2.00 1.83 1.78 1.81 1.88 1.91 2.03 2.05 1.97 1.97 2.15 2.19 2.25 2.52 2.65 2.55 2.53 2.54 2.34 2.39 2.44 2.34 2.48 2.54 2.67 2.91 2.85 2.54 2.50 2.48 2.42 2.28 2.24 2.19 1.99 1.74 1.46
1.65 1.99 2.15 2.18 2.13 2.07 1.92 1.72 1.66 1.67 1.78 1.83 1.84 1.87 1.91 2.01 2.11 2.12 2.12 2.15 2.17 2.26 2.48 2.59 2.39 2.36 2.27 2.25 2.26 2.24 2.32 2.45 2.64 2.56 2.47 2.52 2.45 2.42 2.34 2.13 1.98 1.84 1.53
1.56 1.76 1.87 1.78 1.75 1.79 1.72 1.59 1.52 1.55 1.62 1.70 1.78 1.88 1.93 1.98 2.01 2.08 2.12 2.07 2.06 2.11 2.25 2.31 2.28 2.24 2.20 2.28 2.17 2.14 2.21 2.34 2.47 2.50 2.43 2.52 2.52 2.45 2.45 2.25 2.24 2.09 1.93
1.29 1.39 1.51 1.53 1.51 1.51 1.57 1.60 1.61 1.69 1.68 1.76 1.82 1.84 1.84 1.83 1.75 1.78 1.87 1.89 2.02 1.98 1.89 1.90 1.93 1.97 1.96 1.97 1.82 1.96 2.16 2.27 2.32 2.35 2.34 2.49 2.65 2.67 2.49 2.42 2.47 2.43 2.26
1.14 1.24 1.45 1.58 1.62 1.62 1.66 1.75 1.78 1.76 1.77 1.80 1.77 1.81 1.82 1.59 1.75 1.75 1.75 1.85 1.94 1.93 1.84 1.74 1.65 1.64 1.58 1.58 1.55 1.63 1.87 2.06 2.17 2.27 2.25 2.36 2.59 2.77 2.83 2.78 2.64 2.55 2.52
1.26 1.40 1.57 1.68 1.78 1.79 1.76 1.87 1.83 1.83 1.88 1.84 1.78 1.78 1.82 1.89 1.92 1.74 1.59 1.57 1.68 1.73 1.71 1.70 1.50 1.40 1.55 1.51 1.56 1.53 1.55 1.68 1.83 2.01 2.09 2.07 2.25 2.50 2.71 2.64 2.71 2.73 2.72
1.55 1.73 1.82 1.90 1.86 1.84 1.85 1.88 1.96 2.04 2.07 2.05 2.00 1.91 1.90 1.88 1.84 1.62 1.62 1.57 1.63 1.64 1.66 1.70 1.68 1.58 1.61 1.71 1.69 1.62 1.51 1.46 1.54 1.61 1.73 1.85 2.06 2.34 2.58 2.55 2.56 2.62 2.65
1.70 1.80 1.93 2.02 2.05 2.07 2.09 2.06 2.13 2.25 2.20 2.12 2.07 2.08 2.01 2.02 2.08 1.89 1.90 1.77 1.79 1.82 1.84 1.84 1.79 1.68 1.77 1.71 1.65 1.65 1.59 1.56 1.61 1.67 1.64 1.74 1.96 2.07 2.22 2.29 2.27 2.31 2.23
1.67 1.78 1.96 2.19 2.24 2.26 2.42 2.49 2.43 2.38 2.24 2.25 2.24 2.22 2.21 2.25 2.47 2.28 2.10 1.96 1.98 1.98 2.05 2.03 2.05 1.86 1.83 1.74 1.63 1.65 1.66 1.67 1.72 1.67 1.61 1.57 1.59 1.77 1.96 2.00 2.14 2.28 2.16
1.69 1.82 2.03 2.22 2.31 2.38 2.54 2.61 2.56 2.51 2.46 2.41 2.35 2.40 2.40 2.38 2.54 2.31 2.12 2.00 2.06 2.19 2.19 2.09 2.11 2.09 1.90 1.88 1.81 1.74 1.72 1.69 1.68 1.69 1.66 1.63 1.65 1.73 1.82 1.93 2.14 2.30 2.29
1.63 1.74 1.88 2.06 2.09 2.17 2.43 2.52 2.57 2.59 2.53 2.44 2.38 2.27 2.33 2.31 2.25 2.14 2.05 1.99 2.08 2.19 2.25 2.16 2.12 2.10 1.88 1.78 1.63 1.60 1.62 1.51 1.45 1.56 1.57 1.58 1.60 1.60 1.65 1.85 2.05 2.12 2.15
1.68 1.82 1.97 2.05 2.09 2.20 2.30 2.33 2.40 2.46 2.41 2.30 2.33 2.28 2.23 2.25 2.24 2.00 1.79 1.76 1.80 1.84 1.97 2.09 2.02 1.91 1.71 1.51 1.46 1.41 1.29 1.14 1.16 1.24 1.25 1.25 1.28 1.34 1.46 1.63 1.83 1.92 1.92
1.76 1.82 1.91 2.03 2.04 2.08 2.20 2.29 2.38 2.47 2.54 2.44 2.32 2.23 2.22 2.17 2.05 1.86 1.68 1.61 1.71 1.84 1.93 1.99 1.87 1.75 1.55 1.40 1.30 1.16 1.08 1.10 1.14 1.16 1.18 1.23 1.29 1.35 1.38 1.44 1.55 1.65 1.69
1.70 1.76 1.78 1.82 1.92 2.01 2.03 2.09 2.08 2.17 2.21 2.20 2.14 2.11 2.11 2.06 1.90 1.82 1.66 1.55 1.66 1.84 1.93 1.95 1.80 1.72 1.62 1.50 1.40 1.31 1.26 1.26 1.21 1.17 1.21 1.22 1.24 1.30 1.32 1.35 1.46 1.46 1.41
1.72 1.75 1.68 1.64 1.70 1.76 1.80 1.77 1.77 1.72 1.74 1.72 1.73 1.74 1.70 1.63 1.51 1.39 1.38 1.41 1.48 1.63 1.67 1.77 1.82 1.76 1.70 1.59 1.48 1.37 1.30 1.25 1.19 1.19 1.23 1.24 1.23 1.26 1.33 1.32 1.36 1.38 1.30
1.62 1.69 1.68 1.65 1.68 1.69 1.70 1.69 1.71 1.66 1.58 1.52 1.50 1.50 1.54 1.51 1.45 1.43 1.46 1.50 1.46 1.50 1.48 1.60 1.67 1.62 1.59 1.52 1.40 1.27 1.22 1.24 1.32 1.32 1.32 1.31 1.35 1.37 1.41 1.38 1.36 1.39 1.34
1.43 1.50 1.61 1.71 1.74 1.77 1.79 1.82 1.88 1.92 1.84 1.66 1.51 1.43 1.37 1.34 1.29 1.33 1.40 1.38 1.32 1.33 1.38 1.49 1.50 1.44 1.40 1.35 1.32 1.25 1.25 1.32 1.42 1.39 1.37 1.37 1.39 1.40 1.42 1.42 1.38 1.35 1.35
1.35 1.39 1.40 1.46 1.56 1.65 1.64 1.66 1.74 1.82 1.84 1.73 1.57 1.46 1.39 1.31 1.24 1.23 1.20 1.11 1.16 1.26 1.38 1.41 1.42 1.40 1.30 1.25 1.24 1.20 1.19 1.23 1.33 1.39 1.38 1.42 1.43 1.44 1.44 1.42 1.45 1.46 1.38
1.33 1.36 1.36 1.34 1.34 1.38 1.42 1.48 1.56 1.65 1.69 1.63 1.53 1.42 1.30 1.23 1.10 1.05 1.00 0.98 1.07 1.13 1.19 1.23 1.25 1.21 1.14 1.15 1.18 1.16 1.14 1.20 1.31 1.36 1.35 1.40 1.45 1.44 1.36 1.33 1.35 1.38 1.31
1.34 1.31 1.31 1.30 1.32 1.33 1.37 1.43 1.46 1.51 1.56 1.49 1.37 1.24 1.15 1.04 0.95 0.90 0.90 0.95 1.03 1.10 1.15 1.21 1.20 1.15 1.15 1.18 1.21 1.22 1.19 1.25 1.32 1.34 1.34 1.38 1.43 1.44 1.36 1.31 1.28 1.31 1.32
1.37 1.27 1.20 1.20 1.27 1.33 1.36 1.43 1.46 1.44 1.40 1.34 1.25 1.10 1.06 0.94 0.88 0.87 0.92 0.97 1.02 1.12 1.16 1.19 1.21 1.18 1.14 1.16 1.22 1.27 1.31 1.34 1.39 1.39 1.35 1.37 1.43 1.45 1.47 1.42 1.41 1.38 1.40
1.46 1.33 1.23 1.20 1.21 1.23 1.25 1.31 1.35 1.32 1.24 1.16 1.09 1.04 0.98 0.95 0.86 0.86 0.93 1.03 1.11 1.13 1.09 1.07 1.10 1.12 1.11 1.14 1.15 1.21 1.28 1.33 1.36 1.36 1.41 1.44 1.43 1.42 1.43 1.37 1.37 1.38 1.38
1.46 1.35 1.22 1.12 1.13 1.17 1.20 1.26 1.27 1.23 1.15 1.09 1.05 1.02 0.99 1.00 0.95 0.93 0.98 1.07 1.05 0.98 0.95 0.97 0.99 1.00 1.03 1.10 1.10 1.10 1.15 1.23 1.23 1.23 1.24 1.29 1.30 1.31 1.36 1.36 1.36 1.36 1.39
1.42 1.35 1.23 1.11 1.09 1.11 1.14 1.21 1.23 1.20 1.14 1.05 1.03 1.03 1.07 1.10 1.04 1.00 1.00 0.99 0.94 0.89 0.84 0.90 0.94 0.94 0.96 1.00 1.03 1.04 1.07 1.05 1.04 1.07 1.10 1.16 1.21 1.29 1.33 1.34 1.35 1.36 1.38
1.23 1.15 1.07 0.99 0.96 0.99 1.06 1.12 1.16 1.17 1.14 1.10 1.10 1.11 1.06 1.04 0.99 0.92 0.89 0.89 0.86 0.84 0.82 0.84 0.89 0.91 0.97 0.99 0.91 0.89 0.86 0.80 0.83 0.92 0.91 0.97 1.10 1.20 1.27 1.33 1.33 1.36 1.35